Regional Weather Roundup
Issued by NWS Cleveland, OH

Home | Current Version | Previous Version | Graphics & Text | Print | Product List | Glossary On
Versions: 1 2 3 4 5 6 7 8 9 10 11 12 13 14 15 16 17 18 19 20 21 22 23 24 25 26 27 28 29 30 31 32 33 34 35 36 37 38 39 40 41 42 43 44 45 46 47 48 49 50
064
ASUS41 KCLE 291110
RWRCLE
OHIO REGIONAL WEATHER ROUNDUP
NATIONAL WEATHER SERVICE WILMINGTON, OH
700 AM EDT SUN MAY 29 2016

NOTE: "FAIR" INDICATES FEW OR NO CLOUDS BELOW 12,000 FEET WITH NO
SIGNIFICANT WEATHER AND/OR OBSTRUCTIONS TO VISIBILITY.

OHZ001>008-015>018-024>027-034-035-043-044-291200-
   NORTHWEST OHIO

CITY           SKY/WX    TMP DP  RH WIND       PRES   REMARKS
DEFIANCE       FAIR      70  64  81 S7        30.05S
FINDLAY        FAIR      70  62  76 S8        30.07R
TOLEDO EXPRESS FAIR      69  64  84 S8        30.05R
TOLEDO EXEC    FAIR      70  63  78 S6        30.06S
LIMA           FAIR      69  64  84 S8        30.08S
$$

OHZ009>014-019>023-028>033-038-089-291200-
   NORTHEAST OHIO

CITY           SKY/WX    TMP DP  RH WIND       PRES   REMARKS
CLE-HOPKINS    MOCLDY    70  63  78 S3        30.11R
CLE-LAKEFRONT  FAIR      72  64  76 SE7       30.08R
CUY CO. ARPT   MOSUNNY   70  66  88 S6        30.10
LORAIN-ELYRIA  FAIR      68  64  87 S5        30.10R
ASHTABULA      FAIR      66  66 100 E3        30.11S
AKRON-CANTON   MOCLDY    68  63  84 S3        30.13R
WOOSTER        FAIR      65  63  93 S5        30.13R FOG
MANSFIELD      FAIR      68  65  90 S6        30.12R
YOUNGSTOWN     PTSUNNY   64  63  96 CALM      30.12R
$$

OHZ042-051>053-060>062-070>072-077>081-291200-
  SOUTHWEST OHIO

CITY           SKY/WX    TMP DP  RH WIND       PRES   REMARKS
CINC-COVINGTON CLOUDY    69  63  81 CALM      30.11R
CINC-LUNKEN    FAIR      65  65 100 CALM      30.11R
HAMILTON       FAIR      67  65  93 CALM      30.11R
DAYTON         MOCLDY    70  62  76 S7        30.11S
WRIGHT-PAT AFB CLOUDY    68  67  98 SE1       30.10S
DAYTON GENERAL MOCLDY    68  61  78 SE5       30.10S
WILMINGTON     CLOUDY    69  62  78 SW5       30.12R
$$

OHZ036-037-039>041-045>050-054>059-063>069-073>076-082>088-291200-
  CENTRAL AND SOUTHEAST OHIO

CITY           SKY/WX    TMP DP  RH WIND       PRES   REMARKS
COLUMBUS       MOCLDY    67  65  93 SE3       30.11R
OSU AIRPORT    FAIR      67  66  97 S3        30.11R FOG
BOLTON FIELD   FAIR      65  65  99 SW3       30.12R FOG
RICKENBACK AFB FAIR      65  64  99 CALM      30.10S FOG
NEWARK         FAIR      65  63  93 CALM      30.11S FOG
MARION         FAIR      67  64  90 S5        30.11R FOG
LANCASTER      MOCLDY    66  64  93 CALM      30.12R FOG
ZANESVILLE     FAIR      68  64  87 CALM      30.12S FOG
NEW PHILLY     FAIR      67  63  87 CALM      30.13R FOG
$$




USA.gov is the U.S. government's official web portal to all federal, state and local government web resources and services.